Hourly Weather Roundup
Issued by NWS Central Illinois

Home | Current Version | Previous Version | Text Only | Print | Product List | Glossary On
Versions: 1 2 3 4 5 6 7 8 9 10 11 12 13 14 15 16 17 18 19 20 21 22 23 24 25 26 27 28 29 30 31 32 33 34 35 36 37 38 39 40 41 42 43 44 45 46 47 48 49 50
000
NZUS43 KILX 050010
HWRILX

AREA WEATHER ROUNDUP
NATIONAL WEATHER SERVICE, LINCOLN IL
700 PM CDT WED MAY 04 2016


CITY           SKY/WX    TMP DP  RH WIND       PRES   REMARKS
BLOOMINGTON    MOCLDY    55  42  61 N12       29.85R
6HR MIN TEMP:  54; 6HR MAX TEMP:  58; 6HR PCP: TRACE;

CHAMPAIGN      PTCLDY    53  41  63 NW14      29.83S
6HR MIN TEMP:  53; 6HR MAX TEMP:  60; 6HR PCP: TRACE;

DANVILLE       CLOUDY    50  40  68 N10       29.80R
6HR MIN TEMP:  50; 6HR MAX TEMP:  55;

DECATUR        MOCLDY    57  38  48 NW14G20   29.84S
6HR MIN TEMP:  56; 6HR MAX TEMP:  61;

EFFINGHAM      CLOUDY    56  43  62 NW9       29.86R
FLORA          CLOUDY    58  42  54 N10       29.84S
6HR MIN TEMP:  55; 6HR MAX TEMP:  66; 6HR PCP:  0.01;

GALESBURG      MOSUNNY   60  34  38 N16       29.86S
JACKSONVILLE   CLOUDY    62  33  32 NW18G24   29.86R
6HR MIN TEMP:  59; 6HR MAX TEMP:  65;

LACON          CLOUDY    56  38  49 CALM      29.83S
6HR MIN TEMP:  54; 6HR MAX TEMP:  59;

LAWRENCEVILLE  CLOUDY    56  41  57 N18G28    29.82R
6HR MIN TEMP:  55; 6HR MAX TEMP:  65; 6HR PCP: TRACE;

LITCHFIELD     PTCLDY    58  38  48 N12       29.86R
$$


CITY           SKY/WX    TMP DP  RH WIND       PRES   REMARKS
LINCOLN        MOCLDY    60  41  50 N8        29.84S
6HR MIN TEMP:  57; 6HR MAX TEMP:  61; 6HR PCP:  0.10;

MACOMB         CLOUDY    63  32  31 N22G30    29.88S
MATTOON        CLOUDY    53  43  68 N12       29.83S
6HR MIN TEMP:  50; 6HR MAX TEMP:  61; 6HR PCP:  0.01;

MT CARMEL AP   CLOUDY    55  39  54 N16G22    29.81R
OLNEY-NOBLE AP MOCLDY    54  41  62 N16G23    29.84R
PARIS          CLOUDY    53  41  63 N6        29.83R
6HR MIN TEMP:  53; 6HR MAX TEMP:  59;

PEORIA         CLOUDY    62  31  31 N13G23    29.84S
6HR MIN TEMP:  56; 6HR MAX TEMP:  63;

PONTIAC        CLOUDY    56  44  63 N9        29.84R
RANTOUL        CLOUDY    55  41  60 N13       29.83R
6HR MIN TEMP:  55; 6HR MAX TEMP:  60;

ROBINSON       MOCLDY    54  41  61 N14G21    29.83S
6HR MIN TEMP:  53; 6HR MAX TEMP:  61;

SPRINGFIELD    PTCLDY    62  37  39 N12       29.85S
6HR MIN TEMP:  59; 6HR MAX TEMP:  63;

TAYLORVILLE    PTCLDY    56  41  55 N10       29.85S
$$

...REGIONAL REPORTS...


CITY           SKY/WX    TMP DP  RH WIND       PRES   REMARKS
CHICAGO O`HARE MOCLDY    45  36  70 NE15      29.83R
KANKAKEE       CLOUDY    48  39  71 NE5       29.84R
MOLINE         SUNNY     62  32  32 NW14G28   29.85R
MOUNT STERLING MOSUNNY   60  35  39 NW14      29.87S
MOUNT VERNON   PTCLDY    57  37  47 N5        29.85R
PITTSFIELD     MOSUNNY   62  37  38 NW14G22   29.89S
QUINCY         MOSUNNY   61  35  37 N12       29.88F
ROCKFORD       MOCLDY    57  33  40 N13       29.85R
$$


CITY           SKY/WX    TMP DP  RH WIND       PRES   REMARKS
BURLINGTON     MOSUNNY   62  33  33 N16G22    29.87S
CEDAR RAPIDS   SUNNY     63  33  32 N17       29.87S
DES MOINES     MOSUNNY   67  31  26 NW14G21   29.94S
KIRKSVILLE     MOSUNNY   63  34  33 NW10G20   29.93F
OTTUMWA        SUNNY     63  31  30 N20       29.90F
ST LOUIS       PTCLDY    64  34  32 N15G23    29.87R
$$


CITY           SKY/WX    TMP DP  RH WIND       PRES   REMARKS
TERRE HAUTE    MOCLDY    53  38  56 N12       29.81R
EVANSVILLE     MOCLDY    58  44  60 N8        29.80S
INDIANAPOLIS   MOCLDY    48  39  71 NW9       29.78R
LAFAYETTE      CLOUDY    46  37  71 N12       29.82R
MADISON        MOSUNNY   56  32  40 N15       29.83R
MILWAUKEE      CLOUDY    43  35  73 N17G24    29.86R
$$






USA.gov is the U.S. government's official web portal to all federal, state and local government web resources and services.